248034635,2013-05-23T17:04:43.136,-1691.45, 7557625,  58.35,  61.14, 2574464, 2574401, 2574286, 2574391, 2574493,     117,    1.75,   0.159,   10.06,   28.33,    0.06
248034636,2013-05-23T17:04:47.136,-1687.45, 7536820,  58.36,  61.18, 2574436, 2574392, 2574281, 2574386, 2574465,     114,    1.09,   0.168,   15.41,   32.70,    0.04
248034637,2013-05-23T17:04:51.136,-1683.45, 7516044,  58.33,  61.24, 2574449, 2574334, 2574241, 2574344, 2574479,      97,    1.40,   0.142,   14.27,   32.03,    0.11
248034638,2013-05-23T17:04:55.136,-1679.45, 7495209,  58.30,  61.30, 2574423, 2574332, 2574251, 2574353, 2574453,      92,    1.04,   0.118,   12.73,   27.83,    0.02
248034639,2013-05-23T17:04:59.136,-1675.45, 7474343,  58.27,  61.36, 2574425, 2574405, 2574287, 2574388, 2574455,     101,    1.79,   0.095,   14.69,   32.21,    0.10
248034640,2013-05-23T17:05:03.136,-1671.45, 7453597,  58.24,  61.42, 2574409, 2574371, 2574275, 2574374, 2574440,     106,    1.74,   0.072,   13.97,   31.13,    0.04
248034641,2013-05-23T17:05:07.136,-1667.45, 7432822,  58.21,  61.48, 2574429, 2574389, 2574286, 2574384, 2574461,      91,    1.55,   0.056,   14.76,   30.58,    0.06
248034642,2013-05-23T17:05:11.137,-1663.45, 7411926,  58.17,  61.54, 2574399, 2574379, 2574283, 2574381, 2574431,      97,    2.02,   0.052,   14.58,   31.44,    0.11
248034643,2013-05-23T17:05:15.137,-1659.45, 7391211,  58.14,  61.60, 2574408, 2574361, 2574275, 2574372, 2574439,      91,    1.47,   0.057,   14.86,   31.26,    0.03
248034644,2013-05-23T17:05:19.137,-1655.45, 7370375,  58.10,  61.66, 2574392, 2574380, 2574258, 2574356, 2574423,     103,    1.49,   0.076,   13.75,   30.00,    0.05
248034645,2013-05-23T17:05:23.137,-1651.45, 7349629,  58.06,  61.72, 2574397, 2574347, 2574243, 2574341, 2574427,     102,    1.45,   0.095,   14.63,   30.11,    0.05
248034646,2013-05-23T17:05:27.137,-1647.45, 7328824,  58.06,  61.77, 2574407, 2574378, 2574268, 2574365, 2574437,     102,    1.87,   0.099,   14.88,   31.97,    0.14
248034647,2013-05-23T17:05:31.136,-1643.45, 7308108,  58.12,  61.83, 2574394, 2574342, 2574220, 2574316, 2574424,     108,    1.14,   0.066,   12.20,   28.19,    0.04
248034648,2013-05-23T17:05:35.138,-1639.45, 7287303,  58.19,  61.90, 2574396, 2574364, 2574257, 2574352, 2574427,      98,    1.51,   0.049,   13.56,   29.79,    0.06
248034649,2013-05-23T17:05:39.138,-1635.45, 7266557,  58.24,  61.95, 2574401, 2574380, 2574271, 2574366, 2574432,      95,    1.73,   0.061,   13.21,   31.63,    0.12
248034650,2013-05-23T17:05:43.138,-1631.45, 7245811,  58.26,  62.00, 2574390, 2574371, 2574267, 2574362, 2574421,      89,    1.97,   0.062,   15.66,   33.31,    0.14
248034651,2013-05-23T17:05:47.138,-1627.45, 7225066,  58.28,  62.05, 2574384, 2574370, 2574263, 2574358, 2574415,      92,    1.83,   0.066,   15.40,   33.09,    0.13
248034652,2013-05-23T17:05:51.138,-1623.45, 7204320,  58.28,  62.10, 2574377, 2574391, 2574280, 2574375, 2574407,     101,    1.91,   0.069,   13.72,   32.59,    0.15
248034653,2013-05-23T17:05:55.138,-1619.45, 7183604,  58.26,  62.15, 2574376, 2574365, 2574265, 2574359, 2574406,      87,    1.84,   0.062,   14.79,   31.45,    0.14
248034654,2013-05-23T17:05:59.139,-1615.44, 7162919,  58.21,  62.19, 2574385, 2574362, 2574259, 2574352, 2574416,      99,    1.34,   0.038,   13.73,   31.27,    0.05
248034655,2013-05-23T17:06:03.139,-1611.44, 7142173,  58.14,  62.23, 2574396, 2574346, 2574215, 2574307, 2574426,     112,    0.85,   0.049,   12.19,   28.28,    0.12
248034656,2013-05-23T17:06:07.139,-1607.44, 7121397,  58.07,  62.27, 2574390, 2574340, 2574241, 2574334, 2574420,     106,    1.34,   0.086,   14.68,   30.23,    0.02
248034657,2013-05-23T17:06:11.138,-1603.44, 7100712,  58.04,  62.32, 2574383, 2574377, 2574241, 2574334, 2574412,     116,    1.15,   0.107,   15.30,   33.10,    0.03
248034658,2013-05-23T17:06:15.138,-1599.44, 7080056,  58.02,  62.38, 2574405, 2574322, 2574220, 2574314, 2574433,     105,    1.43,   0.117,   13.82,   30.65,    0.10
248034659,2013-05-23T17:06:19.138,-1595.44, 7059280,  58.04,  62.44, 2574410, 2574404, 2574287, 2574379, 2574439,     113,    1.64,   0.109,   15.85,   34.63,    0.15
248034660,2013-05-23T17:06:23.140,-1591.44, 7038625,  58.06,  62.50, 2574396, 2574377, 2574235, 2574327, 2574424,     118,    0.87,   0.102,   12.81,   29.44,    0.03
248034661,2013-05-23T17:06:27.140,-1587.44, 7017909,  58.07,  62.56, 2574413, 2574389, 2574262, 2574353, 2574442,     107,    1.15,   0.102,   14.72,   33.29,    0.06
248034662,2013-05-23T17:06:31.140,-1583.44, 6997313,  58.06,  62.61, 2574423, 2574285, 2574193, 2574284, 2574451,     118,    0.41,   0.105,   11.17,   26.71,    0.16
248034663,2013-05-23T17:06:35.140,-1579.44, 6976568,  58.04,  62.67, 2574416, 2574408, 2574293, 2574384, 2574443,     119,    1.72,   0.121,   15.72,   34.60,    0.16
248034664,2013-05-23T17:06:39.140,-1575.44, 6955972,  58.04,  62.72, 2574453, 2574361, 2574274, 2574365, 2574480,     121,    1.13,   0.116,   12.75,   28.29,    0.10
248034665,2013-05-23T17:06:43.140,-1571.44, 6935226,  58.04,  62.75, 2574459, 2574426, 2574270, 2574360, 2574486,     140,    0.99,   0.102,   13.92,   30.88,    0.10
248034666,2013-05-23T17:06:47.141,-1567.44, 6914601,  58.05,  62.79, 2574459, 2574408, 2574266, 2574356, 2574487,     123,    0.87,   0.095,   13.26,   29.49,    0.13
248034667,2013-05-23T17:06:51.141,-1563.44, 6893885,  58.05,  62.83, 2574463, 2574451, 2574270, 2574358, 2574491,     148,    0.69,   0.089,   10.58,   27.98,    0.22
248034668,2013-05-23T17:06:55.141,-1559.44, 6873259,  58.05,  62.88, 2574489, 2574444, 2574304, 2574392, 2574516,     134,    1.17,   0.092,   12.95,   29.37,    0.09
248034669,2013-05-23T17:06:59.141,-1555.44, 6852604,  58.04,  62.94, 2574491, 2574465, 2574324, 2574412, 2574518,     131,    1.28,   0.096,   12.49,   29.14,    0.07
248034670,2013-05-23T17:07:03.141,-1551.44, 6832098,  58.05,  63.01, 2574477, 2574377, 2574275, 2574362, 2574505,     123,    1.12,   0.094,   12.21,   28.34,    0.14
248034671,2013-05-23T17:07:07.141,-1547.44, 6811352,  58.05,  63.07, 2574501, 2574471, 2574312, 2574399, 2574528,     142,    0.95,   0.098,   10.41,   26.84,    0.22
248034672,2013-05-23T17:07:11.142,-1543.44, 6790936,  58.04,  63.14, 2574513, 2574506, 2574342, 2574430, 2574539,     126,    0.85,   0.110,   11.73,   29.49,    0.20
248034673,2013-05-23T17:07:15.142,-1539.44, 6770131,  58.03,  63.19, 2574519, 2574491, 2574360, 2574447, 2574546,     122,    1.33,   0.111,   12.98,   30.83,    0.03
248034674,2013-05-23T17:07:19.142,-1535.44, 6749535,  58.04,  63.25, 2574533, 2574487, 2574346, 2574432, 2574560,     119,    1.14,   0.108,   12.68,   30.47,    0.08
248034675,2013-05-23T17:07:23.142,-1531.44, 6728909,  58.04,  63.31, 2574561, 2574507, 2574353, 2574439, 2574588,     141,    0.98,   0.110,   10.20,   27.43,    0.12
248034676,2013-05-23T17:07:27.142,-1527.44, 6708343,  58.06,  63.36, 2574574, 2574501, 2574415, 2574501, 2574601,      90,    1.79,   0.096,   14.56,   32.03,    0.12
248034677,2013-05-23T17:07:31.141,-1523.44, 6687718,  58.08,  63.40, 2574594, 2574557, 2574414, 2574498, 2574621,     124,    0.77,   0.076,    9.78,   26.62,    0.20
248034678,2013-05-23T17:07:35.143,-1519.44, 6667242,  58.06,  63.45, 2574616, 2574511, 2574409, 2574493, 2574643,     115,    1.32,   0.081,   14.30,   31.47,    0.01
248034679,2013-05-23T17:07:39.143,-1515.44, 6646676,  58.04,  63.51, 2574620, 2574506, 2574425, 2574510, 2574646,     101,    1.36,   0.094,   13.71,   31.05,    0.05
248034680,2013-05-23T17:07:43.143,-1511.44, 6625960,  58.01,  63.56, 2574668, 2574571, 2574434, 2574518, 2574694,     135,    1.04,   0.110,   11.75,   28.36,    0.15
248034681,2013-05-23T17:07:47.143,-1507.44, 6605395,  58.02,  63.63, 2574664, 2574640, 2574451, 2574535, 2574690,     143,    0.54,   0.110,    9.49,   27.33,    0.34
248034682,2013-05-23T17:07:51.143,-1503.44, 6585099,  58.03,  63.70, 2574720, 2574508, 2574451, 2574534, 2574746,     131,    0.49,   0.108,   11.71,   25.53,    0.37
248034683,2013-05-23T17:07:55.143,-1499.44, 6564413,  58.05,  63.75, 2574730, 2574555, 2574490, 2574572, 2574756,     117,    0.65,   0.096,   12.03,   29.47,    0.28
248034684,2013-05-23T17:07:59.144,-1495.44, 6543997,  58.05,  63.81, 2574670, 2574463, 2574470, 2574553, 2574696,     104,   -0.33,   0.094,   12.09,   22.09,    0.27
248034685,2013-05-23T17:08:03.144,-1491.44, 6523461,  58.04,  63.87, 2574763, 2574468, 2574493, 2574575, 2574789,     111,   -0.68,   0.099,   10.16,   18.38,    0.55
248034686,2013-05-23T17:08:07.144,-1487.44, 6502956,  58.03,  63.93, 2574758, 2574482, 2574461, 2574543, 2574784,     110,    0.09,   0.107,   12.71,   25.63,    0.32
248034687,2013-05-23T17:08:11.143,-1483.44, 6482300,  58.04,  63.99, 2574761, 2574582, 2574477, 2574559, 2574787,     115,    0.84,   0.105,   13.32,   30.58,    0.08
248034688,2013-05-23T17:08:15.143,-1479.44, 6461914,  58.03,  64.04, 2574742, 2574515, 2574461, 2574542, 2574767,     101,    0.66,   0.103,   14.88,   30.13,    0.00
248034689,2013-05-23T17:08:19.143,-1475.44, 6441438,  58.02,  64.10, 2574760, 2574509, 2574462, 2574543, 2574785,      98,   -0.02,   0.106,   15.28,   29.41,    0.04
248034690,2013-05-23T17:08:23.145,-1471.44, 6420932,  58.02,  64.15, 2574714, 2574519, 2574440, 2574521, 2574739,      82,    0.91,   0.103,   16.68,   31.40,    0.13
248034691,2013-05-23T17:08:27.145,-1467.44, 6400457,  58.01,  64.22, 2574755, 2574511, 2574438, 2574518, 2574780,      91,    0.56,   0.109,   16.20,   31.67,    0.11
248034692,2013-05-23T17:08:31.145,-1463.44, 6379981,  58.01,  64.28, 2574730, 2574521, 2574446, 2574526, 2574754,      90,    0.23,   0.114,   15.43,   30.71,    0.13
248034693,2013-05-23T17:08:35.145,-1459.44, 6359535,  58.02,  64.34, 2574704, 2574516, 2574440, 2574519, 2574729,      69,    1.99,   0.106,   17.25,   34.98,    0.20
248034694,2013-05-23T17:08:39.145,-1455.44, 6339089,  58.02,  64.39, 2574694, 2574514, 2574412, 2574490, 2574719,      90,    1.07,   0.098,   15.58,   33.38,    0.06
248034695,2013-05-23T17:08:43.145,-1451.44, 6318673,  58.01,  64.44, 2574677, 2574485, 2574402, 2574480, 2574702,      81,    1.52,   0.098,   17.74,   34.30,    0.15
248034696,2013-05-23T17:08:47.146,-1447.44, 6298227,  58.02,  64.51, 2574529, 2574503, 2574420, 2574498, 2574554,      64,    2.20,   0.096,   18.60,   37.55,    0.19
248034697,2013-05-23T17:08:51.146,-1443.44, 6277811,  58.03,  64.57, 2574521, 2574491, 2574402, 2574479, 2574545,      75,    2.04,   0.092,   18.61,   37.26,    0.17
248034698,2013-05-23T17:08:55.146,-1439.44, 6257426,  58.01,  64.64, 2574551, 2574468, 2574353, 2574430, 2574575,      88,    0.77,   0.105,   17.19,   35.49,    0.01
248034699,2013-05-23T17:08:59.146,-1435.44, 6237130,  58.00,  64.70, 2574476, 2574411, 2574335, 2574412, 2574500,      71,    0.71,   0.108,   16.60,   33.58,    0.06
248034700,2013-05-23T17:09:03.146,-1431.44, 6216684,  58.01,  64.75, 2574470, 2574388, 2574320, 2574397, 2574495,      62,    0.67,   0.095,   18.37,   36.08,    0.10
248034701,2013-05-23T17:09:07.146,-1427.44, 6196268,  58.05,  64.81, 2574443, 2574428, 2574355, 2574430, 2574468,      45,    1.82,   0.073,   19.91,   38.88,    0.21
248034702,2013-05-23T17:09:11.147,-1423.44, 6175942,  58.08,  64.87, 2574421, 2574379, 2574313, 2574388, 2574446,      48,    1.03,   0.055,   18.48,   35.33,    0.16
248034703,2013-05-23T17:09:15.147,-1419.44, 6155526,  58.10,  64.94, 2574410, 2574408, 2574338, 2574413, 2574435,      40,    1.88,   0.050,   20.24,   38.79,    0.21
248034704,2013-05-23T17:09:19.147,-1415.44, 6135170,  58.10,  65.01, 2574438, 2574405, 2574327, 2574401, 2574463,      50,    0.88,   0.053,   19.20,   37.27,    0.13
248034705,2013-05-23T17:09:23.147,-1411.44, 6114814,  58.08,  65.07, 2574422, 2574394, 2574319, 2574393, 2574447,      50,    0.93,   0.064,   19.60,   36.93,    0.14
248034706,2013-05-23T17:09:27.146,-1407.44, 6094488,  58.04,  65.14, 2574423, 2574389, 2574323, 2574397, 2574447,      36,    2.22,   0.079,   20.90,   40.35,    0.24
248034707,2013-05-23T17:09:31.146,-1403.44, 6074132,  58.00,  65.20, 2574454, 2574404, 2574335, 2574409, 2574478,      41,    2.00,   0.098,   21.91,   41.43,    0.24
248034708,2013-05-23T17:09:35.148,-1399.44, 6053807,  58.00,  65.27, 2574475, 2574383, 2574310, 2574384, 2574499,      54,    1.61,   0.100,   19.03,   36.21,    0.20
248034709,2013-05-23T17:09:39.148,-1395.44, 6033481,  57.98,  65.33, 2574502, 2574383, 2574308, 2574382, 2574525,      58,    1.29,   0.106,   18.29,   36.48,    0.19
248034710,2013-05-23T17:09:43.148,-1391.44, 6013155,  57.98,  65.37, 2574561, 2574364, 2574297, 2574369, 2574584,      60,    0.11,   0.096,   16.89,   32.93,    0.15
248034711,2013-05-23T17:09:47.148,-1387.44, 5992889,  58.01,  65.42, 2574568, 2574352, 2574297, 2574369, 2574591,      61,   -0.60,   0.079,   15.85,   30.57,    0.16
248034713,2013-05-23T17:09:55.148,-1379.44, 5952327,  58.01,  65.52, 2574580, 2574357, 2574279, 2574350, 2574603,      88,    0.33,   0.090,   14.63,   29.29,    0.04
248034714,2013-05-23T17:09:59.149,-1375.43, 5932061,  58.03,  65.58, 2574575, 2574325, 2574279, 2574351, 2574598,      96,   -0.09,   0.087,   13.93,   25.77,    0.00
248034715,2013-05-23T17:10:03.149,-1371.43, 5911735,  58.04,  65.65, 2574589, 2574395, 2574316, 2574387, 2574612,     101,    1.15,   0.080,   14.84,   30.63,    0.05
248034716,2013-05-23T17:10:07.148,-1367.43, 5891529,  58.03,  65.73, 2574621, 2574326, 2574302, 2574372, 2574644,     110,    0.08,   0.075,   10.57,   25.60,    0.45
248034717,2013-05-23T17:10:11.148,-1363.43, 5871203,  58.01,  65.80, 2574519, 2574388, 2574288, 2574358, 2574542,      96,    0.54,   0.079,   13.63,   30.72,    0.11
248034718,2013-05-23T17:10:15.148,-1359.43, 5850997,  57.99,  65.89, 2574562, 2574406, 2574327, 2574397, 2574584,      89,    0.57,   0.082,   13.71,   29.16,    0.04
248034719,2013-05-23T17:10:19.148,-1355.43, 5830731,  57.98,  65.98, 2574516, 2574430, 2574337, 2574407, 2574539,      82,    1.47,   0.089,   15.32,   33.41,    0.11
248034720,2013-05-23T17:10:23.150,-1351.43, 5810525,  57.98,  66.05, 2574484, 2574397, 2574302, 2574371, 2574506,      90,    0.97,   0.096,   12.78,   30.81,    0.01
248034721,2013-05-23T17:10:27.150,-1347.43, 5790289,  57.99,  66.13, 2574481, 2574395, 2574305, 2574374, 2574503,      76,    0.88,   0.091,   13.22,   31.58,    0.03
248034722,2013-05-23T17:10:31.150,-1343.43, 5770113,  58.00,  66.20, 2574480, 2574408, 2574321, 2574389, 2574502,      75,    1.59,   0.088,   14.60,   33.42,    0.13
248034723,2013-05-23T17:10:35.150,-1339.43, 5749937,  57.99,  66.26, 2574429, 2574374, 2574295, 2574363, 2574451,      78,    1.30,   0.085,   12.34,   29.44,    0.05
248034724,2013-05-23T17:10:39.150,-1335.43, 5729821,  57.99,  66.32, 2574433, 2574387, 2574312, 2574380, 2574455,      68,    1.29,   0.082,   15.46,   33.52,    0.07
248034725,2013-05-23T17:10:43.150,-1331.43, 5709675,  58.00,  66.39, 2574425, 2574323, 2574265, 2574333, 2574447,      59,    0.51,   0.074,   14.00,   29.52,    0.08
248034726,2013-05-23T17:10:47.151,-1327.43, 5689469,  58.00,  66.46, 2574428, 2574368, 2574290, 2574356, 2574450,      74,    1.08,   0.075,   10.47,   30.42,    0.03
248034727,2013-05-23T17:10:51.133,-1323.45, 5669443,  57.97,  66.54, 2574398, 2574345, 2574277, 2574344, 2574419,      66,    0.98,   0.089,   15.17,   33.32,    0.05
248034728,2013-05-23T17:10:55.133,-1319.45, 5649237,  57.96,  66.60, 2574465, 2574382, 2574300, 2574366, 2574486,      65,    1.35,   0.090,   17.11,   36.91,    0.12
248034729,2013-05-23T17:10:59.133,-1315.45, 5629121,  57.98,  66.67, 2574438, 2574381, 2574302, 2574368, 2574459,      65,    1.88,   0.077,   16.91,   35.42,    0.15
248034730,2013-05-23T17:11:03.133,-1311.45, 5609034,  58.00,  66.74, 2574376, 2574343, 2574275, 2574340, 2574398,      52,    1.67,   0.069,   16.52,   35.86,    0.16
248034731,2013-05-23T17:11:07.133,-1307.45, 5588888,  58.01,  66.82, 2574407, 2574363, 2574285, 2574350, 2574429,      59,    1.69,   0.065,   18.30,   35.98,    0.12
248034732,2013-05-23T17:11:11.133,-1303.45, 5568802,  58.02,  66.88, 2574412, 2574371, 2574297, 2574361, 2574433,      55,    2.16,   0.054,   19.54,   36.56,    0.16
248034733,2013-05-23T17:11:15.134,-1299.45, 5548686,  58.03,  66.96, 2574424, 2574382, 2574315, 2574379, 2574446,      42,    2.46,   0.050,   22.27,   40.90,    0.20
248034734,2013-05-23T17:11:19.134,-1295.45, 5528630,  58.03,  67.03, 2574465, 2574363, 2574292, 2574356, 2574486,      55,    1.21,   0.050,   19.19,   37.04,    0.09
248034735,2013-05-23T17:11:23.134,-1291.45, 5508544,  58.04,  67.11, 2574464, 2574387, 2574313, 2574377, 2574486,      48,    1.60,   0.048,   21.58,   38.94,    0.15
248034736,2013-05-23T17:11:27.133,-1287.45, 5488518,  58.04,  67.19, 2574429, 2574368, 2574298, 2574361, 2574451,      50,    2.04,   0.051,   20.56,   36.71,    0.15
248034737,2013-05-23T17:11:31.133,-1283.45, 5468462,  58.04,  67.26, 2574428, 2574371, 2574296, 2574359, 2574450,      53,    1.14,   0.048,   19.91,   35.97,    0.10
248034738,2013-05-23T17:11:35.133,-1279.45, 5448436,  58.04,  67.32, 2574446, 2574362, 2574293, 2574356, 2574467,      50,    0.91,   0.041,   20.63,   33.88,    0.09
248034739,2013-05-23T17:11:39.135,-1275.45, 5428409,  58.04,  67.37, 2574433, 2574378, 2574322, 2574384, 2574455,      47,    1.30,   0.028,   20.15,   29.79,    0.14
248034740,2013-05-23T17:11:43.135,-1271.45, 5408413,  58.04,  67.43, 2574436, 2574377, 2574305, 2574367, 2574457,      68,    1.19,   0.049,   19.63,   34.88,    0.01
248034741,2013-05-23T17:11:47.135,-1267.45, 5388357,  58.02,  67.49, 2574465, 2574315, 2574299, 2574360, 2574485,      75,    0.77,   0.068,   17.54,   35.25,    0.33
248034742,2013-05-23T17:11:51.135,-1263.45, 5368391,  58.01,  67.56, 2574483, 2574410, 2574341, 2574403, 2574503,      50,    2.57,   0.074,   22.62,   40.83,    0.20
248034743,2013-05-23T17:11:55.135,-1259.45, 5348425,  58.00,  67.64, 2574445, 2574383, 2574312, 2574373, 2574466,      57,    2.20,   0.066,   19.08,   37.23,    0.16
248034744,2013-05-23T17:11:59.135,-1255.45, 5328489,  58.00,  67.74, 2574442, 2574372, 2574287, 2574347, 2574462,      74,    0.41,   0.047,   15.34,   28.08,    0.10
248034745,2013-05-23T17:12:03.136,-1251.45, 5308582,  57.98,  67.83, 2574431, 2574330, 2574313, 2574373, 2574451,      61,   -0.10,   0.048,   13.07,   20.88,    0.22
248034746,2013-05-23T17:12:07.136,-1247.45, 5288526,  57.98,  67.93, 2574466, 2574440, 2574342, 2574402, 2574486,      89,    1.33,   0.056,   14.56,   32.82,    0.00
248034747,2013-05-23T17:12:11.136,-1243.45, 5268590,  57.96,  68.01, 2574461, 2574439, 2574362, 2574422, 2574480,      60,    1.94,   0.068,   15.10,   35.68,    0.14
248034748,2013-05-23T17:12:15.136,-1239.45, 5248684,  57.94,  68.09, 2574482, 2574432, 2574356, 2574415, 2574502,      69,    1.13,   0.074,   12.90,   32.21,    0.04
248034749,2013-05-23T17:12:19.136,-1235.45, 5228808,  57.93,  68.16, 2574486, 2574415, 2574361, 2574420, 2574506,      59,    0.94,   0.072,   13.33,   28.82,    0.08
248034750,2013-05-23T17:12:23.136,-1231.45, 5208871,  57.92,  68.24, 2574533, 2574452, 2574379, 2574438, 2574552,      81,    1.26,   0.078,   11.51,   30.27,    0.03
248034751,2013-05-23T17:12:27.137,-1227.45, 5189025,  57.93,  68.32, 2574558, 2574425, 2574380, 2574438, 2574578,      90,    0.77,   0.073,    9.30,   28.13,    0.29
248034752,2013-05-23T17:12:31.137,-1223.45, 5169119,  57.96,  68.40, 2574569, 2574461, 2574429, 2574487, 2574589,      91,    0.79,   0.054,    9.30,   19.65,    0.52
248034753,2013-05-23T17:12:35.137,-1219.45, 5149273,  58.01,  68.48, 2574601, 2574382, 2574387, 2574445, 2574621,     123,    0.23,   0.032,    7.31,   22.77,    1.51
248034754,2013-05-23T17:12:39.137,-1215.45, 5129337,  58.05,  68.56, 2574622, 2574555, 2574423, 2574481, 2574642,     129,    0.49,   0.021,    9.90,   24.30,    0.47
248034755,2013-05-23T17:12:43.137,-1211.45, 5109460,  58.08,  68.63, 2574574, 2574332, 2574393, 2574450, 2574594,     114,   -0.27,   0.029,    9.78,   17.11,    0.66
248034756,2013-05-23T17:12:47.136,-1207.45, 5089944,  58.12,  68.71, 2574599, 2574320, 2574384, 2574440, 2574618,     129,   -0.34,   0.052,   10.72,   19.50,    0.39
248034757,2013-05-23T17:12:51.136,-1203.45, 5070068,  58.16,  68.79, 2574584, 2574370, 2574361, 2574417, 2574603,      94,   -0.81,   0.069,   11.13,   22.76,    0.11
248036761,2013-05-23T17:24:35.128, -499.46, 1956603, 236.90,  86.18, 2574238, 2577022, 2574062, 2574365, 2574191,      85,    0.50,   1.340,   12.77,   34.26,    0.27
248036762,2013-05-23T17:24:36.128, -498.46, 1952975, 237.95,  86.13, 2574349, 2576352, 2574103, 2574350, 2574366,      68,    0.83,   1.179,   10.54,   36.60,    0.28
248036763,2013-05-23T17:24:37.128, -497.46, 1949438, 238.91,  86.09, 2574343, 2575821, 2574149, 2574343, 2574394,      49,    1.39,   1.030,   15.65,   39.89,    0.29
248036764,2013-05-23T17:24:37.736, -496.85, 1947309, 239.47,  86.06, 2574430, 2575502, 2574143, 2574307, 2574492,      46,   -0.38,   0.940,   14.77,   38.94,    0.29
248036765,2013-05-23T17:24:38.344, -496.24, 1945181, 239.96,  86.03, 2574444, 2575283, 2574159, 2574298, 2574510,      48,   -0.95,   0.861,   15.19,   40.68,    0.29
248036766,2013-05-23T17:24:38.952, -495.63, 1943052, 240.44,  86.00, 2574444, 2575091, 2574177, 2574293, 2574510,      56,   -0.94,   0.782,   15.72,   38.53,    0.27
248036767,2013-05-23T17:24:39.560, -495.02, 1940924, 240.92,  85.97, 2574468, 2574930, 2574194, 2574287, 2574531,      57,   -0.65,   0.704,   15.63,   38.20,    0.26
248036768,2013-05-23T17:24:40.168, -494.42, 1938795, 241.33,  85.94, 2574479, 2574786, 2574194, 2574268, 2574536,      65,   -1.36,   0.634,   15.08,   38.97,    0.24
248036769,2013-05-23T17:24:40.776, -493.81, 1936667, 241.72,  85.91, 2574461, 2574684, 2574213, 2574272, 2574512,      64,   -0.70,   0.568,   14.56,   36.50,    0.23
248036770,2013-05-23T17:24:41.384, -493.20, 1934508, 242.10,  85.88, 2574482, 2574570, 2574206, 2574252, 2574526,      51,   -1.93,   0.502,   17.39,   40.71,    0.25
248036771,2013-05-23T17:24:41.992, -492.59, 1932350, 242.44,  85.85, 2574453, 2574518, 2574233, 2574267, 2574490,      54,   -0.38,   0.441,   15.29,   38.87,    0.22
248036772,2013-05-23T17:24:42.600, -491.98, 1930281, 242.75,  85.81, 2574448, 2574434, 2574214, 2574240, 2574478,      41,   -1.17,   0.388,   15.74,   40.27,    0.24
248036773,2013-05-23T17:24:43.208, -491.38, 1928153, 243.04,  85.78, 2574459, 2574378, 2574213, 2574233, 2574483,      53,   -1.46,   0.335,   14.64,   37.90,    0.20
248036774,2013-05-23T17:24:43.816, -490.77, 1926024, 243.32,  85.75, 2574449, 2574351, 2574224, 2574239, 2574468,      55,   -0.58,   0.286,   14.10,   37.49,    0.14
248036775,2013-05-23T17:24:44.424, -490.16, 1923926, 243.53,  85.72, 2574434, 2574304, 2574209, 2574221, 2574449,      68,   -0.69,   0.248,   12.71,   32.33,    0.02
248036776,2013-05-23T17:24:45.032, -489.55, 1921857, 243.74,  85.68, 2574420, 2574269, 2574192, 2574202, 2574432,      76,   -0.39,   0.213,   11.89,   30.52,    0.22
248036777,2013-05-23T17:24:45.640, -488.94, 1919788, 243.94,  85.65, 2574370, 2574202, 2574169, 2574179, 2574379,      67,   -0.78,   0.181,   14.05,   26.33,    0.18
248036778,2013-05-23T17:24:46.248, -488.34, 1917690, 244.09,  85.61, 2574344, 2574183, 2574171, 2574180, 2574352,      72,   -0.48,   0.159,   11.47,   22.15,    0.51
248036779,2013-05-23T17:24:46.856, -487.73, 1915561, 244.22,  85.58, 2574350, 2574184, 2574176, 2574185, 2574357,      65,   -0.50,   0.141,   10.07,   22.30,    0.52
248036780,2013-05-23T17:24:47.464, -487.12, 1913463, 244.35,  85.54, 2574343, 2574168, 2574143, 2574152, 2574348,      50,   -1.72,   0.129,   15.83,   29.85,    0.02